Rensselaer, IN

4:05 AM CDT on August 24, 2016 (GMT -0500)
Jasper County

Weather History for KRZL - February, 2014

Change the Weather History Date:

Saturday, February 22, 2014

  Actual Average (KVPZ) Record (KVPZ)
Temperature  
Mean Temperature 30 °F 30 °F  
Max Temperature 33 °F 38 °F 53 °F (2000)
Min Temperature 28 °F 22 °F 8 °F (2015)
Degree Days  
Heating Degree Days 34 35  
Month to date heating degree days 844  
Since 1 July heating degree days 4529  
Cooling Degree Days 0 0  
Month to date cooling degree days 0  
Year to date cooling degree days 0  
Moisture  
Dew Point 26 °F    
Average Humidity 81    
Maximum Humidity 100    
Minimum Humidity 60    
Precipitation  
Precipitation 0.00 in 0.05 in 0.27 in (2010)
Month to date precipitation 1.10  
Year to date precipitation 2.85  
Sea Level Pressure  
Sea Level Pressure 29.99 in    
Wind  
Wind Speed 8 mph (WSW)    
Max Wind Speed 12 mph    
Max Gust Speed -    
Visibility 9 miles    
Events Snow    
T = Trace of Precipitation, MM = Missing Value Source: NWS Daily Summary

Daily Weather History Graph

Daily Weather History Graph

Search for Another Location

Airport or City:

Trip Planner

Search our weather history database for the weather conditions in past years. The results will help you decide how hot, cold, wet, or windy it might be!

Date:

Astronomy

Feb. 22, 2014 Rise Set
Actual Time 6:33 AM CST 5:31 PM CST
Civil Twilight 6:05 AM CST 5:59 PM CST
Nautical Twilight 5:33 AM CST 6:31 PM CST
Astronomical Twilight 5:01 AM CST 7:03 PM CST
Moon 12:29 AM CST (2/22) 10:41 AM CST (2/22)
Length of Visible Light 11h 54m
Length of Day
10h 58m
Waning Gibbous, 50% of the Moon is Illuminated
Feb 22
Waning Gibbous
Mar 1
New
Mar 8
First Quarter
Mar 16
Full
Mar 23
Last Quarter

Hourly Weather History & Observations

Time (CST) Temp. Windchill Dew Point Humidity Pressure Visibility Wind Dir Wind Speed Gust Speed Precip Events Conditions
12:15 AM 33.8 °F 27.0 °F 23.0 °F 65% 29.85 in 10.0 mi WNW 8.1 mph - N/A   Clear
12:35 AM 33.8 °F 27.0 °F 23.0 °F 65% 29.86 in 10.0 mi West 8.1 mph - N/A   Clear
12:55 AM 32.0 °F 24.8 °F 23.0 °F 69% 29.86 in 10.0 mi WNW 8.1 mph - N/A   Clear
1:15 AM 32.0 °F 24.8 °F 21.2 °F 64% 29.87 in 10.0 mi West 8.1 mph - N/A   Clear
1:35 AM 32.0 °F 24.2 °F 19.4 °F 60% 29.88 in 10.0 mi West 9.2 mph - N/A   Clear
1:55 AM 30.2 °F 23.4 °F 17.6 °F 60% 29.88 in 10.0 mi West 6.9 mph - N/A   Clear
2:15 AM 30.2 °F 22.6 °F 19.4 °F 64% 29.88 in 10.0 mi West 8.1 mph - N/A   Clear
2:35 AM 30.2 °F 23.4 °F 19.4 °F 64% 29.89 in 10.0 mi WSW 6.9 mph - N/A   Clear
2:55 AM 28.4 °F 20.4 °F 19.4 °F 69% 29.90 in 10.0 mi WSW 8.1 mph - N/A   Clear
3:15 AM 30.2 °F 21.9 °F 19.4 °F 64% 29.91 in 10.0 mi WSW 9.2 mph - N/A   Clear
3:35 AM 30.2 °F 21.3 °F 19.4 °F 64% 29.91 in 10.0 mi WSW 10.4 mph - N/A   Clear
3:55 AM 30.2 °F 21.3 °F 19.4 °F 64% 29.91 in 10.0 mi WSW 10.4 mph - N/A   Clear
4:15 AM 30.2 °F 22.6 °F 19.4 °F 64% 29.91 in 10.0 mi WSW 8.1 mph - N/A   Clear
4:35 AM 28.4 °F 19.7 °F 21.2 °F 74% 29.94 in 10.0 mi SW 9.2 mph - N/A   Clear
4:55 AM 28.4 °F 19.1 °F 23.0 °F 80% 29.94 in 10.0 mi SW 10.4 mph - N/A   Clear
5:15 AM 30.2 °F 21.3 °F 21.2 °F 69% 29.96 in 10.0 mi SW 10.4 mph - N/A   Clear
5:35 AM 30.2 °F 21.3 °F 21.2 °F 69% 29.96 in 10.0 mi SW 10.4 mph - N/A   Clear
5:55 AM 30.2 °F 21.9 °F 21.2 °F 69% 29.96 in 10.0 mi SW 9.2 mph - N/A   Clear
6:15 AM 30.2 °F 21.9 °F 23.0 °F 75% 29.96 in 10.0 mi WSW 9.2 mph - N/A   Clear
6:35 AM 30.2 °F 21.3 °F 23.0 °F 75% 29.97 in 10.0 mi WSW 10.4 mph - N/A   Clear
6:55 AM 30.2 °F 22.6 °F 23.0 °F 75% 29.97 in 10.0 mi SW 8.1 mph - N/A   Clear
7:15 AM 30.2 °F 23.4 °F 23.0 °F 75% 29.97 in 10.0 mi WSW 6.9 mph - N/A   Clear
7:35 AM 30.2 °F 24.3 °F 24.8 °F 80% 29.99 in 10.0 mi WSW 5.8 mph - N/A   Clear
7:55 AM 32.0 °F 24.2 °F 24.8 °F 75% 30.01 in 10.0 mi SW 9.2 mph - N/A   Clear
8:15 AM 32.0 °F 23.6 °F 24.8 °F 75% 30.03 in 10.0 mi WSW 10.4 mph - N/A   Clear
8:35 AM 32.0 °F 23.6 °F 24.8 °F 75% 30.03 in 10.0 mi WSW 10.4 mph - N/A   Clear
8:55 AM 32.0 °F 23.6 °F 24.8 °F 75% 30.04 in 10.0 mi WSW 10.4 mph - N/A   Clear
9:15 AM 33.8 °F 25.3 °F 24.8 °F 70% 30.04 in 10.0 mi WSW 11.5 mph - N/A   Clear
9:35 AM 33.8 °F 26.4 °F 26.6 °F 75% 30.04 in 10.0 mi West 9.2 mph - N/A   Clear
9:55 AM 33.8 °F 27.7 °F 26.6 °F 75% 30.05 in 10.0 mi WSW 6.9 mph - N/A   Clear
10:15 AM 33.8 °F 25.8 °F 26.6 °F 75% 30.04 in 10.0 mi West 10.4 mph - N/A   Clear
10:35 AM 33.8 °F 27.0 °F 26.6 °F 75% 30.04 in 10.0 mi West 8.1 mph - N/A   Clear
10:55 AM 33.8 °F 27.7 °F 26.6 °F 75% 30.03 in 10.0 mi West 6.9 mph - N/A   Clear
11:15 AM 33.8 °F 28.6 °F 26.6 °F 75% 30.03 in 10.0 mi West 5.8 mph - N/A   Scattered Clouds
11:35 AM 33.8 °F 27.7 °F 26.6 °F 75% 30.03 in 10.0 mi WSW 6.9 mph - N/A   Mostly Cloudy
11:55 AM 33.8 °F 27.7 °F 26.6 °F 75% 30.03 in 10.0 mi SW 6.9 mph - N/A   Overcast
12:15 PM 33.8 °F 26.4 °F 28.4 °F 81% 30.04 in 10.0 mi SW 9.2 mph - N/A   Overcast
12:35 PM 33.8 °F 26.4 °F 24.8 °F 70% 30.02 in 10.0 mi WSW 9.2 mph - N/A   Mostly Cloudy
12:55 PM 33.8 °F 26.4 °F 26.6 °F 75% 30.01 in 10.0 mi WSW 9.2 mph - N/A   Scattered Clouds
1:15 PM 33.8 °F 27.0 °F 26.6 °F 75% 30.00 in 10.0 mi West 8.1 mph - N/A   Mostly Cloudy
1:35 PM 33.8 °F 27.7 °F 26.6 °F 75% 30.01 in 10.0 mi WSW 6.9 mph - N/A   Overcast
1:55 PM 33.8 °F 28.6 °F 26.6 °F 75% 30.01 in 10.0 mi SW 5.8 mph - N/A   Overcast
2:15 PM 33.8 °F 28.6 °F 28.4 °F 81% 30.01 in 10.0 mi SW 5.8 mph - N/A   Overcast
2:35 PM 33.8 °F 29.6 °F 28.4 °F 81% 30.01 in 2.5 mi WSW 4.6 mph - N/A Snow Light Snow
2:55 PM 32.0 °F 26.4 °F 30.2 °F 93% 30.01 in 5.0 mi SW 5.8 mph - N/A Snow Light Snow
3:15 PM 32.0 °F 27.5 °F 30.2 °F 93% 30.01 in 2.0 mi WSW 4.6 mph - N/A Snow Light Snow
3:35 PM 32.0 °F 28.7 °F 30.2 °F 93% 30.01 in 2.0 mi WSW 3.5 mph - N/A Snow Light Snow
3:55 PM 32.0 °F 27.5 °F 30.2 °F 93% 30.00 in 2.5 mi SW 4.6 mph - N/A Snow Light Snow
4:15 PM 32.0 °F - 30.2 °F 93% 29.99 in 5.0 mi Calm Calm - N/A Snow Light Snow
4:35 PM 32.0 °F 28.7 °F 30.2 °F 93% 29.99 in 4.0 mi SW 3.5 mph - N/A Snow Light Snow
4:55 PM 32.0 °F 28.7 °F 32.0 °F 100% 30.00 in 7.0 mi WSW 3.5 mph - N/A   Overcast
5:15 PM 32.0 °F 28.7 °F 32.0 °F 100% 30.00 in 5.0 mi SW 3.5 mph - N/A Snow Light Snow
5:35 PM 32.0 °F 26.4 °F 32.0 °F 100% 30.01 in 7.0 mi SSW 5.8 mph - N/A Snow Light Snow
5:55 PM 32.0 °F 27.5 °F 32.0 °F 100% 30.02 in 7.0 mi SW 4.6 mph - N/A   Overcast
6:15 PM 32.0 °F 26.4 °F 32.0 °F 100% 30.03 in 10.0 mi SW 5.8 mph - N/A   Overcast
6:35 PM 32.0 °F 26.4 °F 32.0 °F 100% 30.03 in 10.0 mi SW 5.8 mph - N/A   Overcast
6:55 PM 32.0 °F 26.4 °F 32.0 °F 100% 30.03 in 10.0 mi SW 5.8 mph - N/A   Overcast
7:15 PM 32.0 °F 26.4 °F 32.0 °F 100% 30.03 in 10.0 mi SW 5.8 mph - N/A   Overcast
7:35 PM 32.0 °F 26.4 °F 32.0 °F 100% 30.04 in 10.0 mi WSW 5.8 mph - N/A   Overcast
7:55 PM 32.0 °F 26.4 °F 32.0 °F 100% 30.04 in 10.0 mi SW 5.8 mph - N/A   Overcast
8:15 PM 32.0 °F 26.4 °F 32.0 °F 100% 30.04 in 10.0 mi West 5.8 mph - N/A   Overcast
8:35 PM 32.0 °F 26.4 °F 32.0 °F 100% 30.05 in 10.0 mi West 5.8 mph - N/A   Overcast
8:55 PM 32.0 °F 27.5 °F 30.2 °F 93% 30.05 in 10.0 mi WSW 4.6 mph - N/A   Overcast
9:15 PM 32.0 °F 27.5 °F 30.2 °F 93% 30.05 in 10.0 mi WSW 4.6 mph - N/A   Overcast
9:35 PM 32.0 °F 28.7 °F 30.2 °F 93% 30.05 in 10.0 mi SW 3.5 mph - N/A   Overcast
9:55 PM 32.0 °F - 30.2 °F 93% 30.04 in 10.0 mi Calm Calm - N/A   Mostly Cloudy
10:15 PM 32.0 °F 26.4 °F 30.2 °F 93% 30.05 in 10.0 mi WSW 5.8 mph - N/A   Scattered Clouds
10:35 PM 32.0 °F 27.5 °F 30.2 °F 93% 30.05 in 10.0 mi West 4.6 mph - N/A   Scattered Clouds
10:55 PM 32.0 °F 26.4 °F 30.2 °F 93% 30.04 in 10.0 mi West 5.8 mph - N/A   Scattered Clouds
11:15 PM 32.0 °F 27.5 °F 28.4 °F 87% 30.05 in 10.0 mi West 4.6 mph - N/A   Mostly Cloudy
11:35 PM 30.2 °F 25.4 °F 28.4 °F 93% 30.05 in 10.0 mi West 4.6 mph - N/A   Scattered Clouds
11:55 PM 30.2 °F 24.3 °F 28.4 °F 93% 30.05 in 10.0 mi West 5.8 mph - N/A   Clear